Regional Weather Roundup
Issued by NWS

Home | Current Version | Previous Version | Graphics & Text | Print | Product List | Glossary On
Versions: 1 2 3 4 5 6 7 8 9 10 11 12 13 14 15 16 17 18 19 20 21 22 23 24 25 26 27 28 29 30 31 32 33 34 35 36 37 38 39 40 41 42 43 44 45 46 47 48 49 50
000
ASUS45 KBOU 010210
RWRCO

WEATHER ROUNDUP FOR COLORADO
NATIONAL WEATHER SERVICE DENVER/BOULDER CO
800 PM MDT FRI JUL 31 2015

NOTE: "FAIR" INDICATES FEW OR NO CLOUDS BELOW 12000 FEET WITH NO
SIGNIFICANT WEATHER AND/OR OBSTRUCTIONS TO VISIBILITY.

COZ001>005-013-030-031-010300-
...NORTHWEST COLORADO...

CITY           SKY/WX    TMP DP  RH WIND       PRES   REMARKS
CRAIG          CLEAR     79  38  22 W3        30.21S
HAYDEN         CLEAR     82  28  14 W5        30.24S
MEEKER         CLEAR     81  28  14 N7        30.23S
MOUNT WERNER   NOT AVBL
STEAMBOAT SPGS CLEAR     78  35  21 CALM      30.26S
WALDEN         PTCLDY    70  36  28 NE10      30.38R
$$

COZ006>008-011-010300-
...WEST CENTRAL VALLEYS...

CITY           SKY/WX    TMP DP  RH WIND       PRES   REMARKS
GRAND JUNCTION PTCLDY    88  38  17 S8        30.09S
MONTROSE       CLOUDY    78  46  32 SE18      30.25R
EAGLE          PTCLDY    82  36  18 SW10      30.25S
RIFLE          PTCLDY    88  37  16 S9        30.14R
DELTA          CLOUDY    85  43  22 SE10G16   30.18R HAZE
NUCLA          CLOUDY    77  45  31 SE13      30.29R
$$

COZ017>023-064>068-010300-
...SOUTHWEST COLORADO...

CITY           SKY/WX    TMP DP  RH WIND       PRES   REMARKS
DURANGO        CLOUDY    67  51  56 NE3       30.35S
CORTEZ         PTCLDY    66  62  87 CALM      30.28S
PAGOSA SPRINGS CLOUDY    64  55  70 CALM      30.43S
TELLURIDE      CLOUDY    55  51  87 SE3       30.56F
WOLF CREEK PAS NOT AVBL
$$

COZ009-010-012-014-032>034-037-058>063-010300-
...CENTRAL COLORADO...

CITY           SKY/WX    TMP DP  RH WIND       PRES   REMARKS
ASPEN          PTCLDY    70  43  37 S8        30.36S
BUENA VISTA    MOCLDY    66  46  48 SE10G18   30.44R
COPPER MTN     CLOUDY    59  37  44 S15G22    30.73S
BERTHOUD PASS  FAIR      45  36  70 E20G28    30.78S
COTTONWOOD PAS MOCLDY    63  43  48 S5        30.57F
GUNNISON       MOCLDY    68  46  45 SW9       30.42S
KREMMLING      PTCLDY    77  36  22 E13       30.32S
LEADVILLE      PTCLDY    63  38  39 SE3       30.55S
MONARCH PASS   CLOUDY    50  41  71 NE6       30.84S
SALIDA         NOT AVBL
SUNLIGHT       PTCLDY    63  39  42 CALM      30.64S
WILKERSON PASS PTCLDY    48  41  76 S8        30.72R
$$

COZ069>075-010300-
...SAN LUIS VALLEY/SANGRE DE CRISTO MOUNTAINS...

CITY           SKY/WX    TMP DP  RH WIND       PRES   REMARKS
ALAMOSA        CLOUDY    60  51  72 SW8       30.41S
LA VETA PASS   CLOUDY    52  43  71 W5        30.61S
SAGUACHE       CLOUDY    61  55  82 SE6       30.48R
$$

COZ035-036-038>040-010300-
...NORTHERN COLORADO FRONT RANGE...

CITY           SKY/WX    TMP DP  RH WIND       PRES   REMARKS
DENVER INTL AP PTCLDY    80  49  33 S12       30.23R
DMNS CITY PARK   N/A     78  50  37 SE9       30.21S
AURORA         PTCLDY    77  51  40 S12       30.26R
FRONT RANGE AP MOCLDY    79  45  29 MISG      30.25R
ERIE MUNI ARPT PTCLDY    81  47  30 S7        30.20S
BOULDER MUN AP PTCLDY    81  48  32 S6        30.20S
CENTENNIAL     PTCLDY    74  53  48 S7        30.27R
BROOMFIELD     PTCLDY    79  48  34 S7        30.25R
FORT COLLINS   PTCLDY    81  52  36 E6        30.17R
LONGMONT       MOCLDY    83  48  29 S6        30.21R
$$

COZ041-046-047-076>085-087-088-010300-
...PIKES PEAK/PALMER DIVIDE AND SOUTHERN FOOTHILLS...

CITY           SKY/WX    TMP DP  RH WIND       PRES   REMARKS
COLO. SPRINGS  MOCLDY    72  51  47 N5        30.33R
A. F. ACADEMY  MOCLDY    71  49  45 SE6       30.34R
ELLICOTT       MOCLDY   N/A N/A N/A S6        30.31R
FALCON         MOCLDY    70  50  49 W5        30.38S
FORT CARSON    DRIZZLE   66  55  68 SW15      30.30R
LIMON          PTCLDY    75  52  44 SE9       30.26R
MONUMENT HILL  PTCLDY    64  52  63 SW6       30.38R
TRINIDAD       CLOUDY    78  57  48 SE5       30.25R
$$

COZ042>045-048>051-090-091-010300-
...NORTHEAST COLORADO...

CITY           SKY/WX    TMP DP  RH WIND       PRES   REMARKS
GREELEY ARPT   PTCLDY    79  52  38 SE7       30.18R
AKRON          CLEAR     79  48  33 SE8       30.19S
BURLINGTON     CLEAR     77  58  51 SE8       30.20R
WRAY           MOCLDY    84  56  38 S9        30.14R
STERLING       CLEAR     81  52  36 S6        30.13R
HOLYOKE        NOT AVBL
FORT MORGAN    CLEAR     78  49  36 SE8       30.18R
$$

COZ086-089-092>099-010300-
...SOUTHEAST COLORADO...

CITY           SKY/WX    TMP DP  RH WIND       PRES   REMARKS
PUEBLO         MOCLDY    80  54  40 NW9       30.21R
LA JUNTA       CLEAR     82  60  47 E12       30.17R
LAMAR          CLEAR     80  60  50 SE10      30.15R
SPRINGFIELD      N/A     74  63  68 SE14      30.21R
$$



USA.gov is the U.S. government's official web portal to all federal, state and local government web resources and services.